When you browse on this site, cookies collect data to enhance your experience and personalize the content and advertising you see.
Visit our Privacy Policy to learn more. By continuing to use the site, you agree to this use of cookies and data.
  • In Hungary
  • List of Countries
  • For 7 days
  • Water Temperature
  • Satellite Maps
  • Weather Map
  • News
  • Weather Widgets
  • user-avatar
    Login

    Hourly Weather Burgos

    Today, 11 December, Tuesday

    Time Temperature Precipitation Wind Pressure Humidity
    00:00 +6°C° 0 mm 1 mps 688 mmHg 62%
    01:00 +5°C° 0 mm 1 mps 687 mmHg 61%
    02:00 +5°C° 0 mm 1 mps 687 mmHg 60%
    03:00 +5°C° 0 mm 1 mps 686 mmHg 59%
    04:00 +5°C° 0 mm 1 mps 686 mmHg 59%
    05:00 +5°C° 0 mm 1 mps 686 mmHg 59%
    06:00 +5°C° 0 mm 1 mps 685 mmHg 59%
    07:00 +5°C° 0 mm 1 mps 685 mmHg 59%
    08:00 +6°C° 0 mm 1 mps 685 mmHg 58%
    09:00 +5°C° 0 mm 2 mps 685 mmHg 58%
    10:00 +7°C° 0 mm 2 mps 686 mmHg 54%
    11:00 +9°C° 0 mm 2 mps 686 mmHg 51%
    12:00 +10°C° 0 mm 2 mps 686 mmHg 48%
    13:00 +10°C° 0 mm 2 mps 686 mmHg 50%
    14:00 +12°C° 0 mm 2 mps 685 mmHg 52%
    15:00 +12°C° 0 mm 2 mps 685 mmHg 54%
    16:00 +9°C° 0 mm 2 mps 685 mmHg 58%
    17:00 +9°C° 0 mm 1 mps 685 mmHg 63%
    18:00 +7°C° 0 mm 1 mps 685 mmHg 68%
    19:00 +7°C° 0 mm 1 mps 685 mmHg 69%
    20:00 +7°C° 0 mm 1 mps 685 mmHg 70%
    21:00 +6°C° 0 mm 1 mps 685 mmHg 71%
    22:00 +6°C° 0 mm 1 mps 685 mmHg 73%
    23:00 +5°C° 0 mm 1 mps 685 mmHg 75%

    Tomorrow, 12 December, Wednesday

    Time Temperature Precipitation Wind Pressure Humidity
    00:00 +5°C° 0 mm 1 mps 685 mmHg 77%
    01:00 +5°C° 0 mm 1 mps 685 mmHg 80%
    02:00 +4°C° 0 mm 1 mps 685 mmHg 82%
    03:00 +4°C° 0 mm 1 mps 685 mmHg 84%
    04:00 +4°C° 0 mm 1 mps 685 mmHg 86%
    05:00 +4°C° 0 mm 1 mps 685 mmHg 87%
    06:00 +3°C° 0 mm 1 mps 685 mmHg 89%
    07:00 +4°C° 0 mm 1 mps 685 mmHg 88%
    08:00 +4°C° 0 mm 1 mps 685 mmHg 87%
    09:00 +5°C° 0 mm 1 mps 685 mmHg 85%
    10:00 +6°C° 0 mm 1 mps 685 mmHg 81%
    11:00 +7°C° 0 mm 1 mps 685 mmHg 76%
    12:00 +9°C° 0 mm 1 mps 685 mmHg 71%
    13:00 +8°C° 0 mm 2 mps 684 mmHg 71%
    14:00 +8°C° 0 mm 2 mps 683 mmHg 71%
    15:00 +8°C° 0 mm 3 mps 683 mmHg 70%
    16:00 +7°C° 0 mm 3 mps 682 mmHg 76%
    17:00 +5°C° 0 mm 3 mps 682 mmHg 81%
    18:00 +4°C° 0 mm 3 mps 682 mmHg 86%
    19:00 +4°C° 0 mm 3 mps 681 mmHg 85%
    20:00 +5°C° 0 mm 3 mps 681 mmHg 85%
    21:00 +5°C° 0 mm 4 mps 681 mmHg 84%
    22:00 +5°C° 0 mm 4 mps 680 mmHg 83%
    23:00 +5°C° 0 mm 5 mps 679 mmHg 83%

    Day after tomorrow, 13 December, Thursday

    Time Temperature Precipitation Wind Pressure Humidity
    00:00 +5°C° 0 mm 5 mps 679 mmHg 83%
    01:00 +5°C° 0.1 mm 5 mps 678 mmHg 80%
    02:00 +5°C° 0.1 mm 5 mps 677 mmHg 78%
    03:00 +5°C° 0.1 mm 5 mps 676 mmHg 76%
    04:00 +5°C° 0.2 mm 5 mps 676 mmHg 78%
    05:00 +5°C° 0.2 mm 5 mps 675 mmHg 80%
    06:00 +5°C° 0.2 mm 5 mps 674 mmHg 82%
    07:00 +5°C° 1.1 mm 5 mps 675 mmHg 83%
    08:00 +5°C° 1.1 mm 5 mps 675 mmHg 84%
    09:00 +4°C° 1.1 mm 4 mps 676 mmHg 85%
    10:00 +5°C° 0.6 mm 5 mps 676 mmHg 79%
    11:00 +5°C° 0.6 mm 5 mps 676 mmHg 73%
    12:00 +4°C° 0.6 mm 6 mps 677 mmHg 67%
    13:00 +4°C° 0.4 mm 6 mps 677 mmHg 67%
    14:00 +4°C° 0.4 mm 7 mps 677 mmHg 67%
    15:00 +4°C° 0.4 mm 8 mps 677 mmHg 67%
    16:00 +3°C° 0.1 mm 7 mps 678 mmHg 70%
    17:00 +2°C° 0.1 mm 6 mps 679 mmHg 73%
    18:00 +1°C° 0.1 mm 4 mps 679 mmHg 76%
    19:00 +1°C° 0 mm 4 mps 680 mmHg 78%
    20:00 +1°C° 0 mm 4 mps 680 mmHg 80%
    21:00 +2°C° 0 mm 3 mps 681 mmHg 82%
    22:00 +2°C° 0 mm 3 mps 681 mmHg 83%
    23:00 +2°C° 0 mm 3 mps 681 mmHg 84%

    14 December, Friday

    Time Temperature Precipitation Wind Pressure Humidity
    00:00 +2°C° 0 mm 3 mps 681 mmHg 85%
    01:00 +2°C° 0 mm 3 mps 682 mmHg 85%
    02:00 +2°C° 0 mm 3 mps 682 mmHg 86%
    03:00 +2°C° 0 mm 3 mps 683 mmHg 86%
    04:00 +2°C° 0 mm 2 mps 683 mmHg 87%
    05:00 +2°C° 0 mm 2 mps 684 mmHg 87%
    06:00 +2°C° 0 mm 2 mps 684 mmHg 88%
    07:00 +2°C° 0 mm 2 mps 685 mmHg 87%
    08:00 +2°C° 0 mm 2 mps 685 mmHg 86%
    09:00 +3°C° 0 mm 2 mps 686 mmHg 84%
    10:00 +4°C° 0 mm 2 mps 686 mmHg 79%
    11:00 +5°C° 0 mm 2 mps 687 mmHg 74%
    12:00 +6°C° 0 mm 2 mps 687 mmHg 69%
    13:00 +6°C° 0 mm 2 mps 687 mmHg 68%
    14:00 +7°C° 0 mm 2 mps 687 mmHg 67%
    15:00 +7°C° 0 mm 3 mps 687 mmHg 66%
    16:00 +6°C° 0 mm 2 mps 688 mmHg 71%
    17:00 +4°C° 0 mm 2 mps 688 mmHg 75%
    18:00 +3°C° 0 mm 2 mps 688 mmHg 80%
    19:00 +3°C° 0 mm 2 mps 688 mmHg 81%
    20:00 +3°C° 0 mm 2 mps 688 mmHg 81%
    21:00 +3°C° 0 mm 2 mps 688 mmHg 82%
    22:00 +2°C° 0 mm 2 mps 688 mmHg 84%
    23:00 +2°C° 0 mm 2 mps 688 mmHg 86%

    15 December, Saturday

    Time Temperature Precipitation Wind Pressure Humidity
    00:00 +1°C° 0 mm 2 mps 688 mmHg 87%
    01:00 +1°C° 0 mm 2 mps 688 mmHg 89%
    02:00 +1°C° 0 mm 2 mps 687 mmHg 91%
    03:00 +1°C° 0 mm 2 mps 687 mmHg 92%
    04:00 +2°C° 0 mm 2 mps 687 mmHg 92%
    05:00 +2°C° 0 mm 2 mps 687 mmHg 92%
    06:00 +1°C° 0 mm 3 mps 687 mmHg 93%
    07:00 +2°C° 0 mm 3 mps 687 mmHg 92%
    08:00 +2°C° 0 mm 3 mps 687 mmHg 91%
    09:00 +3°C° 0 mm 3 mps 688 mmHg 90%
    10:00 +4°C° 0 mm 3 mps 688 mmHg 88%
    11:00 +5°C° 0 mm 3 mps 687 mmHg 85%
    12:00 +6°C° 0 mm 4 mps 687 mmHg 83%
    13:00 +7°C° 0.1 mm 4 mps 687 mmHg 84%
    14:00 +7°C° 0.1 mm 4 mps 687 mmHg 84%
    15:00 +7°C° 0.1 mm 4 mps 687 mmHg 84%
    16:00 +8°C° 0 mm 3 mps 687 mmHg 85%
    17:00 +7°C° 0 mm 3 mps 687 mmHg 87%
    18:00 +7°C° 0 mm 3 mps 687 mmHg 88%
    19:00 +5°C° 0 mm 3 mps 687 mmHg 88%
    20:00 +5°C° 0 mm 3 mps 687 mmHg 88%
    21:00 +5°C° 0 mm 3 mps 687 mmHg 87%
    22:00 +5°C° 0 mm 3 mps 687 mmHg 87%
    23:00 +5°C° 0 mm 3 mps 687 mmHg 87%

    16 December, Sunday

    Time Temperature Precipitation Wind Pressure Humidity
    00:00 +5°C° 0 mm 3 mps 687 mmHg 87%
    01:00 +4°C° 0 mm 3 mps 687 mmHg 86%
    02:00 +4°C° 0 mm 3 mps 686 mmHg 85%
    03:00 +4°C° 0 mm 3 mps 686 mmHg 84%
    04:00 +4°C° 0 mm 3 mps 686 mmHg 84%
    05:00 +4°C° 0 mm 3 mps 686 mmHg 83%
    06:00 +4°C° 0 mm 3 mps 685 mmHg 83%
    07:00 +5°C° 0 mm 3 mps 686 mmHg 81%
    08:00 +5°C° 0 mm 3 mps 686 mmHg 78%
    09:00 +6°C° 0 mm 4 mps 686 mmHg 76%
    10:00 +7°C° 0 mm 5 mps 686 mmHg 71%
    11:00 +9°C° 0 mm 6 mps 686 mmHg 65%
    12:00 +11°C° 0 mm 7 mps 686 mmHg 60%
    13:00 +11°C° 0 mm 6 mps 685 mmHg 61%
    14:00 +11°C° 0 mm 6 mps 685 mmHg 62%
    15:00 +11°C° 0 mm 6 mps 685 mmHg 62%
    16:00 +10°C° 0.5 mm 6 mps 685 mmHg 69%
    17:00 +9°C° 0.5 mm 5 mps 685 mmHg 76%
    18:00 +7°C° 0.5 mm 5 mps 685 mmHg 82%
    19:00 +7°C° 0.1 mm 5 mps 686 mmHg 85%
    20:00 +7°C° 0.1 mm 4 mps 686 mmHg 88%
    21:00 +6°C° 0.1 mm 4 mps 686 mmHg 91%
    22:00 +7°C° 0 mm 3 mps 687 mmHg 92%
    23:00 +7°C° 0 mm 3 mps 687 mmHg 93%
    Show more